TimeEDT,TemperatureF,Dew PointF,Humidity,Sea Level PressureIn,VisibilityMPH,Wind Direction,Wind SpeedMPH,Gust SpeedMPH,PrecipitationIn,Events,Conditions,WindDirDegrees,DateUTC
12:06 AM,68.0,66.2,94,30.10,10.0,Calm,Calm,-,0.00,,Mostly Cloudy,0,2013-07-22 04:06:00
12:54 AM,68.0,66.9,96,30.00,10.0,Calm,Calm,-,0.00,,Overcast,0,2013-07-22 04:54:00
1:54 AM,68.0,66.9,96,29.98,10.0,NNW,3.5,-,0.00,,Overcast,330,2013-07-22 05:54:00
2:54 AM,68.0,66.9,96,29.96,10.0,North,3.5,-,N/A,,Overcast,360,2013-07-22 06:54:00
3:54 AM,68.0,66.0,93,29.94,10.0,NNW,5.8,-,0.00,,Overcast,330,2013-07-22 07:54:00
4:07 AM,68.0,66.2,94,30.01,10.0,North,5.8,-,N/A,,Overcast,350,2013-07-22 08:07:00
4:36 AM,66.2,66.2,100,30.01,10.0,NNW,8.1,-,N/A,,Scattered Clouds,340,2013-07-22 08:36:00
4:54 AM,68.0,66.0,93,29.93,10.0,NNW,6.9,-,N/A,,Mostly Cloudy,340,2013-07-22 08:54:00
5:40 AM,66.2,66.2,100,30.02,9.0,WSW,3.5,-,N/A,,Overcast,240,2013-07-22 09:40:00
5:54 AM,66.9,66.0,97,29.96,10.0,WSW,3.5,-,N/A,,Overcast,250,2013-07-22 09:54:00
6:09 AM,66.2,64.4,94,30.02,10.0,Calm,Calm,-,N/A,,Overcast,0,2013-07-22 10:09:00
6:37 AM,66.2,66.2,100,30.03,10.0,Calm,Calm,-,N/A,,Overcast,0,2013-07-22 10:37:00
6:54 AM,66.9,66.0,97,29.97,9.0,Calm,Calm,-,N/A,,Overcast,0,2013-07-22 10:54:00
7:07 AM,66.2,66.2,100,30.04,10.0,Calm,Calm,-,N/A,,Overcast,0,2013-07-22 11:07:00
7:54 AM,68.0,66.0,93,29.98,10.0,WNW,3.5,-,N/A,,Overcast,300,2013-07-22 11:54:00
8:54 AM,70.0,66.9,90,29.99,10.0,North,3.5,-,N/A,,Overcast,360,2013-07-22 12:54:00
9:54 AM,72.0,68.0,87,29.99,10.0,Variable,4.6,-,N/A,,Mostly Cloudy,0,2013-07-22 13:54:00
10:26 AM,73.4,66.2,78,30.06,10.0,Calm,Calm,-,N/A,,Mostly Cloudy,0,2013-07-22 14:26:00
10:33 AM,73.4,68.0,83,30.06,10.0,NW,3.5,-,N/A,,Scattered Clouds,320,2013-07-22 14:33:00
10:54 AM,75.9,68.0,76,29.98,10.0,Calm,Calm,-,N/A,,Clear,0,2013-07-22 14:54:00
11:54 AM,79.0,68.0,69,29.97,10.0,NE,3.5,-,N/A,,Partly Cloudy,50,2013-07-22 15:54:00
12:54 PM,73.9,66.9,79,29.97,5.0,NNW,13.8,20.7,0.00,Rain,Rain,340,2013-07-22 16:54:00
12:58 PM,71.6,66.2,83,30.05,1.5,WNW,12.7,20.7,0.02,Rain,Heavy Rain,290,2013-07-22 16:58:00
1:01 PM,71.6,66.2,83,30.05,0.8,Variable,6.9,16.1,0.10,Rain,Heavy Rain,0,2013-07-22 17:01:00
1:15 PM,71.6,66.2,83,30.03,1.8,Calm,Calm,-,0.45,Rain,Light Rain,0,2013-07-22 17:15:00
1:17 PM,73.4,66.2,78,30.03,4.0,Variable,4.6,-,0.45,Rain,Light Rain,0,2013-07-22 17:17:00
1:54 PM,78.1,68.0,71,29.93,10.0,Variable,3.5,-,0.45,,Clear,0,2013-07-22 17:54:00
2:46 PM,73.4,69.8,88,29.99,2.5,SSE,5.8,-,0.06,Rain,Rain,160,2013-07-22 18:46:00
2:54 PM,75.9,70.0,82,29.91,10.0,East,5.8,-,0.07,Rain,Light Rain,90,2013-07-22 18:54:00
3:54 PM,73.9,71.1,91,29.89,3.0,NNE,4.6,-,0.00,Rain,Light Rain,30,2013-07-22 19:54:00
4:01 PM,73.4,71.6,94,29.96,2.5,Calm,Calm,-,0.06,Rain,Light Rain,0,2013-07-22 20:01:00
4:08 PM,73.4,71.6,94,29.96,10.0,Calm,Calm,-,0.06,,Overcast,0,2013-07-22 20:08:00
4:19 PM,73.4,71.6,94,29.96,1.8,East,4.6,-,0.06,Rain,Heavy Rain,80,2013-07-22 20:19:00
4:27 PM,73.4,69.8,88,29.96,1.2,Variable,4.6,-,0.28,Rain,Rain,0,2013-07-22 20:27:00
4:30 PM,73.4,69.8,88,29.95,2.5,Variable,3.5,-,0.28,Rain,Light Rain,0,2013-07-22 20:30:00
4:37 PM,75.2,71.6,89,29.95,10.0,Calm,Calm,-,0.29,Rain,Light Rain,0,2013-07-22 20:37:00
4:54 PM,75.9,72.0,87,29.87,6.0,South,13.8,17.3,0.29,Rain,Rain,190,2013-07-22 20:54:00
5:54 PM,79.0,70.0,74,29.85,10.0,South,13.8,-,0.01,,Scattered Clouds,170,2013-07-22 21:54:00
6:54 PM,78.1,69.1,74,29.85,10.0,South,9.2,-,N/A,,Scattered Clouds,190,2013-07-22 22:54:00
7:54 PM,75.0,69.1,82,29.86,10.0,South,6.9,-,N/A,,Partly Cloudy,180,2013-07-22 23:54:00
8:54 PM,73.9,69.1,85,29.86,10.0,South,6.9,-,0.00,,Mostly Cloudy,190,2013-07-23 00:54:00
9:54 PM,72.0,70.0,93,29.89,10.0,SW,3.5,-,0.01,,Overcast,230,2013-07-23 01:54:00
10:54 PM,70.0,69.1,97,29.90,10.0,Calm,Calm,-,N/A,,Clear,0,2013-07-23 02:54:00
11:54 PM,69.1,68.0,96,29.89,10.0,NW,5.8,-,N/A,,Clear,310,2013-07-23 03:54:00